QPF
0.09 0.14 0.16 0.12 0.09 0.08 0.05 0.04 0.05 0.07 0.08 0.08 0.07 0.08 0.07 0.08 0.10 0.10 0.09 0.10 0.12 0.14 0.19 0.18 0.13 0.13 0.13 0.12 0.13 0.13 0.13 0.13 0.17 0.18 0.17 0.13 0.12 0.10 0.08 0.06 0.04 0.03 0.04
0.11 0.13 0.12 0.12 0.10 0.09 0.04 0.04 0.03 0.05 0.07 0.08 0.08 0.09 0.08 0.08 0.10 0.12 0.12 0.12 0.14 0.15 0.15 0.13 0.10 0.10 0.10 0.10 0.09 0.10 0.11 0.12 0.16 0.16 0.17 0.15 0.11 0.10 0.08 0.07 0.04 0.03 0.04
0.07 0.08 0.08 0.09 0.09 0.07 0.06 0.04 0.03 0.05 0.06 0.09 0.11 0.12 0.09 0.09 0.13 0.14 0.13 0.12 0.14 0.14 0.14 0.14 0.08 0.07 0.07 0.07 0.08 0.09 0.10 0.13 0.14 0.16 0.18 0.16 0.12 0.11 0.09 0.08 0.06 0.04 0.03
0.08 0.06 0.06 0.07 0.07 0.06 0.05 0.05 0.05 0.06 0.07 0.09 0.14 0.11 0.09 0.11 0.12 0.12 0.13 0.13 0.16 0.14 0.10 0.11 0.06 0.06 0.08 0.08 0.09 0.10 0.13 0.12 0.13 0.16 0.15 0.11 0.10 0.11 0.12 0.09 0.07 0.05 0.03
0.08 0.06 0.06 0.07 0.05 0.05 0.07 0.07 0.07 0.08 0.08 0.11 0.15 0.10 0.10 0.11 0.13 0.13 0.14 0.14 0.14 0.12 0.08 0.08 0.07 0.07 0.06 0.07 0.08 0.10 0.12 0.10 0.12 0.12 0.09 0.08 0.08 0.14 0.14 0.10 0.10 0.06 0.04
0.09 0.09 0.10 0.09 0.08 0.05 0.07 0.08 0.08 0.09 0.09 0.10 0.11 0.10 0.12 0.15 0.16 0.15 0.14 0.12 0.13 0.11 0.09 0.08 0.10 0.08 0.07 0.07 0.08 0.10 0.11 0.13 0.12 0.09 0.08 0.05 0.09 0.15 0.15 0.14 0.11 0.09 0.08
0.10 0.14 0.15 0.17 0.13 0.08 0.07 0.08 0.10 0.11 0.09 0.09 0.09 0.08 0.13 0.18 0.16 0.13 0.12 0.12 0.11 0.10 0.12 0.11 0.12 0.10 0.10 0.09 0.10 0.10 0.11 0.13 0.10 0.08 0.08 0.05 0.09 0.14 0.15 0.16 0.11 0.08 0.06
0.07 0.09 0.09 0.14 0.14 0.11 0.09 0.09 0.10 0.11 0.13 0.11 0.10 0.10 0.12 0.10 0.10 0.11 0.12 0.13 0.11 0.09 0.11 0.12 0.14 0.13 0.14 0.10 0.07 0.10 0.13 0.12 0.07 0.08 0.06 0.05 0.09 0.15 0.17 0.14 0.10 0.07 0.06
0.06 0.07 0.08 0.09 0.10 0.11 0.10 0.10 0.10 0.13 0.16 0.13 0.10 0.11 0.11 0.10 0.11 0.11 0.09 0.09 0.08 0.09 0.11 0.13 0.12 0.13 0.12 0.09 0.08 0.10 0.12 0.12 0.10 0.08 0.05 0.07 0.08 0.14 0.17 0.13 0.10 0.07 0.09
0.06 0.06 0.06 0.07 0.08 0.09 0.09 0.09 0.11 0.14 0.13 0.10 0.09 0.10 0.09 0.09 0.10 0.10 0.08 0.06 0.06 0.07 0.08 0.11 0.11 0.10 0.08 0.09 0.10 0.13 0.17 0.17 0.10 0.08 0.07 0.08 0.08 0.12 0.15 0.15 0.13 0.10 0.10
0.03 0.04 0.04 0.03 0.06 0.06 0.05 0.05 0.08 0.10 0.10 0.09 0.10 0.08 0.07 0.05 0.05 0.04 0.05 0.06 0.06 0.07 0.07 0.07 0.07 0.10 0.10 0.10 0.11 0.14 0.19 0.22 0.13 0.10 0.09 0.07 0.10 0.14 0.19 0.19 0.16 0.12 0.10
0.04 0.03 0.03 0.04 0.05 0.05 0.03 0.05 0.07 0.08 0.10 0.09 0.10 0.08 0.06 0.04 0.03 0.02 0.03 0.04 0.05 0.06 0.07 0.07 0.08 0.09 0.09 0.09 0.12 0.15 0.16 0.18 0.16 0.11 0.09 0.09 0.11 0.15 0.23 0.20 0.15 0.14 0.13
0.02 0.01 0.03 0.03 0.03 0.04 0.05 0.07 0.07 0.08 0.09 0.08 0.08 0.06 0.04 0.04 0.03 0.03 0.04 0.04 0.05 0.05 0.04 0.05 0.07 0.08 0.07 0.07 0.11 0.15 0.22 0.19 0.16 0.12 0.13 0.13 0.12 0.14 0.21 0.20 0.14 0.15 0.17
0.01 0.01 0.02 0.02 0.02 0.03 0.04 0.04 0.05 0.05 0.06 0.05 0.05 0.04 0.03 0.05 0.06 0.05 0.05 0.04 0.05 0.04 0.05 0.06 0.07 0.08 0.08 0.07 0.08 0.10 0.18 0.20 0.16 0.16 0.17 0.18 0.17 0.17 0.25 0.26 0.17 0.17 0.17
0.01 0.01 0.01 0.02 0.02 0.02 0.03 0.02 0.02 0.03 0.03 0.03 0.04 0.04 0.05 0.08 0.09 0.08 0.06 0.05 0.04 0.03 0.05 0.07 0.08 0.08 0.08 0.07 0.06 0.06 0.06 0.07 0.08 0.12 0.15 0.16 0.18 0.17 0.23 0.31 0.24 0.20 0.17
0.01 0.01 0.02 0.02 0.02 0.01 0.02 0.02 0.02 0.03 0.03 0.03 0.03 0.04 0.07 0.10 0.11 0.09 0.07 0.06 0.04 0.04 0.05 0.06 0.06 0.08 0.09 0.07 0.05 0.05 0.05 0.04 0.05 0.05 0.06 0.06 0.06 0.08 0.12 0.24 0.27 0.28 0.22
0.02 0.02 0.02 0.02 0.02 0.02 0.02 0.01 0.02 0.03 0.03 0.02 0.03 0.04 0.06 0.10 0.11 0.09 0.09 0.07 0.05 0.05 0.06 0.07 0.05 0.07 0.06 0.06 0.06 0.05 0.05 0.05 0.06 0.06 0.05 0.05 0.05 0.06 0.08 0.14 0.25 0.32 0.31
0.02 0.02 0.02 0.01 0.02 0.02 0.02 0.03 0.02 0.03 0.04 0.03 0.03 0.04 0.05 0.07 0.08 0.09 0.09 0.08 0.05 0.04 0.05 0.07 0.06 0.08 0.08 0.07 0.07 0.07 0.06 0.07 0.05 0.04 0.03 0.04 0.04 0.05 0.06 0.08 0.15 0.29 0.38
0.01 0.02 0.02 0.01 0.02 0.02 0.02 0.03 0.02 0.03 0.05 0.04 0.03 0.03 0.05 0.04 0.04 0.07 0.09 0.08 0.07 0.05 0.05 0.05 0.06 0.06 0.08 0.08 0.06 0.05 0.05 0.06 0.04 0.03 0.02 0.03 0.04 0.04 0.05 0.07 0.09 0.17 0.25
0.01 0.02 0.02 0.02 0.03 0.02 0.02 0.03 0.02 0.03 0.04 0.04 0.03 0.03 0.03 0.04 0.04 0.06 0.06 0.07 0.08 0.08 0.06 0.05 0.06 0.06 0.07 0.08 0.05 0.04 0.05 0.04 0.03 0.03 0.03 0.03 0.03 0.04 0.08 0.11 0.12 0.14 0.17
0.02 0.04 0.02 0.01 0.02 0.02 0.02 0.03 0.02 0.03 0.05 0.05 0.04 0.03 0.04 0.04 0.05 0.06 0.04 0.06 0.08 0.09 0.07 0.07 0.07 0.07 0.07 0.08 0.06 0.05 0.06 0.05 0.04 0.03 0.03 0.05 0.05 0.04 0.04 0.05 0.07 0.07 0.09
0.03 0.05 0.02 0.02 0.03 0.02 0.03 0.04 0.02 0.02 0.04 0.04 0.04 0.04 0.03 0.03 0.04 0.05 0.05 0.08 0.09 0.09 0.07 0.07 0.07 0.07 0.06 0.08 0.07 0.07 0.06 0.06 0.04 0.02 0.03 0.04 0.06 0.06 0.05 0.04 0.04 0.05 0.05
0.02 0.03 0.03 0.05 0.05 0.03 0.03 0.03 0.02 0.03 0.03 0.04 0.05 0.04 0.03 0.04 0.06 0.06 0.06 0.08 0.09 0.08 0.07 0.07 0.07 0.07 0.08 0.09 0.07 0.07 0.07 0.06 0.04 0.03 0.03 0.04 0.06 0.07 0.06 0.05 0.04 0.05 0.05
0.01 0.02 0.04 0.08 0.07 0.03 0.02 0.03 0.03 0.03 0.03 0.04 0.04 0.04 0.05 0.04 0.05 0.07 0.06 0.07 0.07 0.06 0.06 0.06 0.06 0.06 0.08 0.07 0.06 0.04 0.05 0.05 0.04 0.04 0.03 0.05 0.06 0.06 0.06 0.05 0.03 0.04 0.04
0.01 0.02 0.02 0.05 0.06 0.03 0.02 0.03 0.03 0.03 0.03 0.04 0.04 0.05 0.06 0.04 0.04 0.05 0.06 0.07 0.07 0.06 0.06 0.06 0.06 0.07 0.06 0.04 0.04 0.03 0.04 0.04 0.03 0.04 0.04 0.05 0.05 0.04 0.04 0.04 0.03 0.03 0.03
0.01 0.01 0.01 0.01 0.03 0.04 0.04 0.04 0.03 0.03 0.05 0.04 0.05 0.06 0.06 0.07 0.07 0.06 0.04 0.05 0.08 0.09 0.08 0.08 0.07 0.07 0.05 0.04 0.03 0.03 0.03 0.03 0.04 0.05 0.05 0.06 0.06 0.04 0.03 0.02 0.02 0.02 0.02
MSLP
1006.88 1006.49 1006.21 1006.00 1005.79 1005.51 1005.13 1004.65 1004.06 1003.35 1002.48 1001.36 999.92 998.05 995.72 993.01 990.09 987.25 984.84 983.22 982.64 983.24 984.97 987.61 990.81 994.18 997.33 1000.01 1002.08 1003.56 1004.60 1005.37 1006.07 1006.81 1007.64 1008.53 1009.39 1010.13 1010.69 1011.05 1011.25 1011.36 1011.46
1006.90 1006.55 1006.31 1006.12 1005.91 1005.64 1005.25 1004.76 1004.17 1003.50 1002.70 1001.72 1000.47 998.87 996.88 994.55 992.02 989.54 987.43 986.00 985.50 986.03 987.56 989.90 992.73 995.71 998.48 1000.83 1002.64 1003.96 1004.90 1005.64 1006.33 1007.10 1007.96 1008.86 1009.72 1010.45 1010.99 1011.32 1011.48 1011.57 1011.65
1006.81 1006.54 1006.37 1006.24 1006.08 1005.83 1005.47 1004.99 1004.41 1003.77 1003.06 1002.22 1001.20 999.92 998.33 996.46 994.42 992.40 990.68 989.51 989.11 989.56 990.85 992.81 995.17 997.64 999.93 1001.86 1003.35 1004.44 1005.25 1005.93 1006.63 1007.41 1008.28 1009.19 1010.04 1010.75 1011.25 1011.55 1011.69 1011.76 1011.85
1006.66 1006.48 1006.41 1006.38 1006.29 1006.10 1005.77 1005.31 1004.76 1004.16 1003.52 1002.82 1002.02 1001.05 999.87 998.48 996.95 995.42 994.11 993.23 992.94 993.32 994.36 995.91 997.78 999.71 1001.48 1002.97 1004.12 1004.98 1005.65 1006.28 1006.96 1007.75 1008.63 1009.52 1010.35 1011.01 1011.48 1011.75 1011.87 1011.95 1012.06
1006.48 1006.41 1006.45 1006.51 1006.52 1006.40 1006.12 1005.70 1005.18 1004.61 1004.03 1003.45 1002.84 1002.14 1001.32 1000.36 999.30 998.24 997.32 996.71 996.53 996.85 997.65 998.83 1000.23 1001.66 1002.96 1004.04 1004.88 1005.54 1006.10 1006.67 1007.34 1008.12 1008.99 1009.86 1010.63 1011.25 1011.67 1011.92 1012.04 1012.13 1012.27
1006.33 1006.35 1006.48 1006.64 1006.74 1006.69 1006.48 1006.10 1005.62 1005.08 1004.55 1004.05 1003.58 1003.10 1002.56 1001.96 1001.28 1000.61 1000.03 999.65 999.57 999.84 1000.45 1001.31 1002.31 1003.33 1004.24 1005.00 1005.60 1006.10 1006.57 1007.11 1007.76 1008.53 1009.37 1010.19 1010.91 1011.47 1011.85 1012.07 1012.20 1012.31 1012.49
1006.24 1006.32 1006.52 1006.76 1006.92 1006.94 1006.79 1006.46 1006.02 1005.52 1005.03 1004.60 1004.22 1003.89 1003.56 1003.21 1002.83 1002.44 1002.12 1001.92 1001.92 1002.15 1002.60 1003.22 1003.93 1004.64 1005.27 1005.80 1006.24 1006.64 1007.06 1007.58 1008.22 1008.96 1009.75 1010.51 1011.17 1011.68 1012.02 1012.22 1012.36 1012.50 1012.72
1006.23 1006.34 1006.57 1006.84 1007.04 1007.10 1007.00 1006.73 1006.34 1005.89 1005.45 1005.07 1004.77 1004.54 1004.35 1004.16 1003.97 1003.77 1003.62 1003.54 1003.58 1003.78 1004.13 1004.58 1005.09 1005.60 1006.05 1006.44 1006.79 1007.14 1007.55 1008.06 1008.68 1009.38 1010.12 1010.82 1011.42 1011.88 1012.19 1012.38 1012.54 1012.70 1012.95
1006.33 1006.42 1006.63 1006.89 1007.09 1007.17 1007.11 1006.89 1006.55 1006.17 1005.79 1005.47 1005.24 1005.08 1004.97 1004.89 1004.80 1004.72 1004.66 1004.65 1004.72 1004.89 1005.17 1005.52 1005.91 1006.29 1006.65 1006.97 1007.28 1007.61 1008.01 1008.51 1009.10 1009.77 1010.46 1011.10 1011.65 1012.07 1012.37 1012.57 1012.74 1012.94 1013.20
1006.52 1006.57 1006.73 1006.93 1007.10 1007.17 1007.12 1006.95 1006.68 1006.37 1006.07 1005.83 1005.66 1005.56 1005.51 1005.48 1005.46 1005.44 1005.42 1005.45 1005.53 1005.68 1005.91 1006.19 1006.51 1006.83 1007.13 1007.42 1007.71 1008.04 1008.43 1008.91 1009.47 1010.10 1010.74 1011.34 1011.85 1012.26 1012.56 1012.79 1012.99 1013.20 1013.47
1006.80 1006.79 1006.87 1007.00 1007.10 1007.15 1007.10 1006.96 1006.76 1006.53 1006.31 1006.15 1006.05 1006.01 1006.01 1006.02 1006.03 1006.04 1006.05 1006.08 1006.16 1006.30 1006.50 1006.75 1007.03 1007.31 1007.58 1007.85 1008.12 1008.43 1008.80 1009.25 1009.77 1010.36 1010.96 1011.53 1012.04 1012.45 1012.78 1013.04 1013.27 1013.51 1013.78
1007.16 1007.09 1007.09 1007.13 1007.16 1007.16 1007.10 1006.98 1006.83 1006.68 1006.55 1006.47 1006.44 1006.46 1006.49 1006.54 1006.57 1006.59 1006.61 1006.66 1006.74 1006.87 1007.06 1007.29 1007.54 1007.79 1008.03 1008.26 1008.50 1008.78 1009.11 1009.52 1010.00 1010.55 1011.12 1011.68 1012.20 1012.64 1013.01 1013.32 1013.58 1013.84 1014.10
1007.58 1007.46 1007.39 1007.35 1007.31 1007.25 1007.17 1007.07 1006.96 1006.86 1006.81 1006.79 1006.82 1006.88 1006.95 1007.01 1007.06 1007.10 1007.14 1007.19 1007.29 1007.43 1007.61 1007.82 1008.05 1008.28 1008.48 1008.68 1008.88 1009.10 1009.38 1009.74 1010.18 1010.69 1011.24 1011.80 1012.34 1012.83 1013.25 1013.60 1013.90 1014.17 1014.42
1008.02 1007.88 1007.76 1007.66 1007.56 1007.46 1007.36 1007.25 1007.17 1007.11 1007.10 1007.13 1007.19 1007.28 1007.36 1007.43 1007.49 1007.54 1007.60 1007.67 1007.79 1007.94 1008.13 1008.34 1008.56 1008.76 1008.94 1009.09 1009.24 1009.42 1009.64 1009.95 1010.34 1010.82 1011.35 1011.92 1012.48 1013.00 1013.45 1013.85 1014.17 1014.45 1014.69
1008.43 1008.29 1008.16 1008.03 1007.91 1007.78 1007.66 1007.55 1007.48 1007.44 1007.44 1007.48 1007.55 1007.63 1007.70 1007.77 1007.83 1007.88 1007.95 1008.06 1008.19 1008.37 1008.58 1008.81 1009.02 1009.21 1009.36 1009.48 1009.59 1009.72 1009.90 1010.16 1010.51 1010.96 1011.47 1012.03 1012.59 1013.13 1013.61 1014.02 1014.36 1014.64 1014.87
1008.75 1008.65 1008.54 1008.41 1008.29 1008.16 1008.04 1007.93 1007.86 1007.82 1007.82 1007.84 1007.88 1007.93 1007.97 1008.01 1008.05 1008.11 1008.19 1008.31 1008.48 1008.69 1008.93 1009.17 1009.40 1009.59 1009.74 1009.84 1009.94 1010.04 1010.19 1010.42 1010.73 1011.14 1011.62 1012.15 1012.70 1013.22 1013.69 1014.10 1014.43 1014.70 1014.92
1008.93 1008.88 1008.82 1008.73 1008.64 1008.53 1008.43 1008.35 1008.28 1008.23 1008.20 1008.19 1008.19 1008.18 1008.18 1008.17 1008.19 1008.23 1008.31 1008.45 1008.64 1008.88 1009.15 1009.43 1009.68 1009.89 1010.05 1010.17 1010.27 1010.37 1010.51 1010.71 1011.00 1011.36 1011.80 1012.28 1012.77 1013.24 1013.67 1014.04 1014.35 1014.61 1014.82
1008.94 1008.96 1008.96 1008.93 1008.89 1008.84 1008.78 1008.72 1008.67 1008.62 1008.58 1008.53 1008.47 1008.41 1008.35 1008.30 1008.27 1008.29 1008.37 1008.52 1008.73 1008.99 1009.28 1009.59 1009.87 1010.11 1010.30 1010.45 1010.58 1010.70 1010.85 1011.04 1011.30 1011.62 1011.99 1012.40 1012.81 1013.20 1013.56 1013.87 1014.14 1014.37 1014.57
1008.80 1008.88 1008.95 1008.99 1009.02 1009.03 1009.03 1009.02 1008.99 1008.96 1008.90 1008.83 1008.74 1008.63 1008.52 1008.43 1008.37 1008.36 1008.42 1008.57 1008.78 1009.05 1009.36 1009.68 1009.99 1010.27 1010.50 1010.69 1010.85 1011.01 1011.18 1011.37 1011.61 1011.88 1012.18 1012.49 1012.80 1013.10 1013.36 1013.60 1013.82 1014.02 1014.22
1008.56 1008.68 1008.81 1008.92 1009.01 1009.09 1009.15 1009.19 1009.21 1009.20 1009.15 1009.07 1008.96 1008.83 1008.70 1008.58 1008.50 1008.47 1008.52 1008.65 1008.85 1009.12 1009.43 1009.76 1010.08 1010.37 1010.64 1010.87 1011.08 1011.27 1011.46 1011.66 1011.88 1012.10 1012.32 1012.54 1012.75 1012.94 1013.11 1013.27 1013.43 1013.61 1013.81
1008.28 1008.43 1008.60 1008.76 1008.91 1009.04 1009.16 1009.25 1009.30 1009.32 1009.30 1009.24 1009.14 1009.01 1008.88 1008.75 1008.67 1008.63 1008.67 1008.79 1008.97 1009.22 1009.51 1009.82 1010.14 1010.44 1010.72 1010.98 1011.22 1011.45 1011.66 1011.87 1012.06 1012.24 1012.40 1012.53 1012.64 1012.73 1012.81 1012.90 1013.02 1013.18 1013.39
1008.06 1008.23 1008.41 1008.59 1008.77 1008.93 1009.08 1009.20 1009.29 1009.34 1009.35 1009.31 1009.23 1009.13 1009.02 1008.92 1008.84 1008.82 1008.86 1008.96 1009.13 1009.34 1009.60 1009.88 1010.17 1010.46 1010.73 1011.00 1011.26 1011.51 1011.73 1011.94 1012.12 1012.27 1012.37 1012.44 1012.47 1012.49 1012.50 1012.54 1012.62 1012.77 1012.99
1008.01 1008.15 1008.31 1008.49 1008.66 1008.82 1008.97 1009.09 1009.19 1009.25 1009.28 1009.27 1009.22 1009.16 1009.08 1009.01 1008.97 1008.97 1009.02 1009.12 1009.26 1009.45 1009.66 1009.90 1010.15 1010.40 1010.66 1010.92 1011.17 1011.42 1011.65 1011.86 1012.03 1012.16 1012.23 1012.25 1012.24 1012.20 1012.17 1012.18 1012.24 1012.39 1012.62
1008.17 1008.26 1008.38 1008.52 1008.65 1008.78 1008.89 1008.98 1009.05 1009.10 1009.12 1009.12 1009.09 1009.06 1009.02 1008.99 1008.99 1009.01 1009.07 1009.17 1009.30 1009.46 1009.64 1009.84 1010.04 1010.25 1010.47 1010.71 1010.94 1011.18 1011.41 1011.62 1011.78 1011.90 1011.96 1011.97 1011.93 1011.88 1011.83 1011.82 1011.88 1012.03 1012.26
1008.55 1008.59 1008.65 1008.72 1008.78 1008.83 1008.88 1008.90 1008.92 1008.92 1008.91 1008.89 1008.86 1008.84 1008.82 1008.82 1008.84 1008.89 1008.97 1009.07 1009.20 1009.34 1009.49 1009.65 1009.82 1009.99 1010.18 1010.38 1010.59 1010.81 1011.03 1011.23 1011.40 1011.52 1011.58 1011.59 1011.56 1011.51 1011.47 1011.46 1011.52 1011.67 1011.91
1009.15 1009.10 1009.09 1009.07 1009.05 1009.01 1008.96 1008.90 1008.84 1008.76 1008.69 1008.63 1008.57 1008.52 1008.49 1008.49 1008.52 1008.58 1008.67 1008.78 1008.91 1009.04 1009.18 1009.32 1009.46 1009.61 1009.76 1009.94 1010.13 1010.33 1010.54 1010.73 1010.90 1011.03 1011.11 1011.14 1011.13 1011.10 1011.07 1011.08 1011.15 1011.29 1011.53
Thickness
5802 5802 5794 5793 5792 5792 5791 5790 5789 5788 5787 5786 5785 5784 5784 5783 5783 5783 5782 5782 5781 5780 5778 5777 5776 5774 5773 5771 5769 5768 5766 5765 5763 5761 5760 5758 5757 5756 5756 5755 5755 5755 5753
5805 5802 5794 5793 5792 5791 5791 5790 5789 5787 5786 5785 5784 5783 5783 5782 5781 5781 5781 5780 5780 5779 5778 5776 5775 5774 5773 5771 5769 5767 5765 5764 5762 5761 5759 5758 5757 5756 5755 5755 5755 5755 5753
5805 5801 5796 5792 5791 5790 5790 5789 5788 5786 5785 5784 5783 5782 5782 5781 5781 5780 5780 5779 5779 5778 5777 5776 5775 5774 5773 5771 5769 5767 5765 5763 5762 5761 5760 5760 5759 5756 5755 5754 5754 5753 5752
5805 5802 5796 5792 5790 5789 5788 5787 5786 5785 5784 5783 5782 5781 5781 5781 5780 5779 5779 5779 5778 5777 5776 5775 5775 5773 5772 5770 5768 5766 5764 5762 5761 5761 5763 5763 5761 5757 5755 5754 5753 5752 5751
5803 5800 5795 5791 5789 5788 5787 5786 5784 5784 5783 5783 5782 5781 5779 5779 5779 5778 5778 5778 5778 5777 5776 5775 5774 5773 5771 5769 5768 5766 5764 5762 5761 5762 5764 5763 5762 5757 5755 5754 5753 5752 5750
5803 5801 5795 5790 5789 5787 5785 5784 5783 5782 5782 5781 5780 5779 5778 5778 5777 5778 5778 5778 5777 5776 5775 5774 5773 5772 5770 5769 5767 5765 5763 5762 5762 5765 5764 5763 5762 5758 5756 5754 5753 5752 5750
5803 5800 5795 5788 5787 5785 5784 5783 5782 5781 5780 5780 5779 5778 5778 5777 5777 5777 5777 5777 5776 5775 5774 5773 5771 5770 5769 5768 5766 5764 5763 5762 5765 5765 5763 5763 5761 5759 5757 5754 5753 5751 5749
5802 5799 5795 5788 5786 5784 5783 5782 5780 5779 5779 5778 5778 5778 5777 5777 5776 5776 5776 5775 5775 5774 5773 5772 5770 5769 5768 5767 5766 5764 5763 5763 5765 5766 5764 5763 5759 5757 5755 5753 5752 5751 5749
5802 5799 5796 5793 5789 5785 5783 5781 5779 5778 5777 5776 5776 5776 5776 5776 5775 5775 5774 5774 5773 5773 5772 5771 5770 5769 5768 5767 5766 5764 5763 5763 5766 5766 5764 5761 5757 5755 5753 5752 5751 5750 5749
5801 5799 5796 5795 5791 5789 5786 5781 5779 5778 5776 5776 5775 5775 5775 5775 5775 5775 5775 5773 5772 5772 5771 5771 5770 5769 5768 5767 5766 5764 5764 5763 5767 5766 5764 5760 5756 5754 5753 5752 5751 5750 5749
5797 5797 5796 5795 5792 5791 5788 5784 5782 5779 5777 5776 5776 5775 5776 5778 5777 5777 5775 5773 5772 5771 5771 5770 5770 5769 5769 5768 5766 5765 5764 5766 5767 5765 5762 5757 5754 5753 5752 5752 5751 5750 5749
5792 5795 5795 5793 5791 5790 5788 5785 5784 5782 5779 5778 5777 5777 5777 5777 5777 5778 5775 5773 5772 5772 5771 5770 5770 5770 5770 5771 5768 5766 5767 5766 5766 5764 5760 5756 5754 5752 5751 5751 5750 5749 5748
5794 5794 5794 5793 5791 5790 5787 5785 5783 5782 5780 5779 5777 5777 5776 5777 5778 5778 5778 5776 5774 5774 5774 5773 5773 5773 5773 5772 5770 5769 5767 5767 5766 5764 5759 5755 5753 5752 5751 5750 5750 5749 5748
5792 5792 5793 5792 5790 5787 5785 5785 5783 5782 5780 5779 5777 5776 5776 5776 5777 5778 5777 5777 5776 5775 5774 5774 5773 5772 5771 5769 5768 5767 5766 5765 5765 5763 5758 5754 5753 5751 5750 5750 5750 5749 5748
5792 5792 5791 5790 5787 5785 5783 5782 5783 5781 5780 5779 5776 5776 5775 5776 5776 5777 5775 5774 5776 5775 5775 5773 5772 5771 5769 5769 5768 5766 5765 5764 5764 5762 5759 5754 5752 5751 5751 5750 5749 5749 5748
5792 5792 5792 5789 5787 5785 5783 5781 5781 5781 5779 5779 5777 5775 5774 5775 5775 5775 5775 5774 5774 5774 5773 5772 5772 5770 5769 5768 5767 5766 5765 5764 5762 5761 5760 5756 5753 5752 5751 5750 5749 5749 5748
5793 5792 5791 5790 5788 5785 5784 5783 5783 5782 5780 5778 5776 5774 5773 5774 5773 5774 5774 5774 5773 5773 5772 5771 5770 5770 5768 5768 5766 5765 5764 5763 5762 5760 5760 5758 5756 5753 5751 5750 5749 5748 5748
5795 5792 5791 5792 5789 5786 5784 5782 5783 5782 5780 5778 5776 5774 5773 5772 5772 5773 5773 5773 5772 5772 5772 5770 5770 5768 5767 5766 5765 5765 5764 5762 5761 5760 5760 5758 5757 5756 5753 5750 5748 5748 5747
5796 5793 5791 5790 5789 5787 5785 5783 5783 5781 5779 5778 5776 5775 5773 5772 5771 5772 5772 5771 5771 5771 5771 5771 5769 5767 5765 5764 5765 5764 5764 5762 5761 5761 5760 5759 5757 5756 5755 5751 5749 5747 5745
5797 5795 5792 5790 5788 5788 5787 5784 5783 5781 5780 5778 5776 5774 5773 5772 5771 5771 5771 5769 5770 5770 5769 5767 5765 5764 5764 5764 5765 5763 5762 5762 5761 5761 5760 5759 5757 5756 5755 5753 5751 5748 5746
5797 5794 5792 5790 5789 5788 5786 5784 5781 5780 5779 5778 5777 5775 5773 5772 5771 5770 5771 5769 5769 5768 5766 5766 5764 5763 5763 5763 5761 5759 5759 5761 5760 5759 5759 5758 5757 5756 5754 5753 5752 5750 5748
5797 5795 5793 5791 5790 5789 5787 5784 5782 5781 5780 5780 5778 5775 5774 5773 5771 5772 5769 5770 5768 5767 5765 5764 5763 5761 5762 5762 5759 5755 5752 5753 5755 5759 5757 5756 5756 5755 5754 5752 5750 5749 5748
5799 5796 5795 5792 5790 5788 5788 5787 5784 5781 5780 5779 5777 5776 5775 5773 5771 5770 5770 5769 5767 5767 5766 5764 5763 5760 5758 5760 5760 5756 5750 5748 5752 5755 5755 5754 5753 5752 5752 5752 5750 5749 5747
5802 5800 5797 5794 5791 5789 5788 5786 5783 5779 5777 5777 5777 5777 5775 5773 5772 5770 5769 5768 5767 5767 5765 5765 5764 5762 5758 5757 5758 5758 5757 5756 5751 5749 5753 5754 5752 5749 5750 5751 5751 5749 5746
5805 5802 5799 5795 5792 5790 5788 5786 5783 5781 5779 5779 5778 5775 5774 5774 5772 5770 5769 5768 5766 5766 5764 5763 5762 5760 5760 5758 5757 5756 5754 5753 5754 5750 5746 5747 5748 5749 5750 5749 5749 5748 5746
5806 5803 5801 5795 5791 5789 5788 5786 5782 5779 5777 5775 5774 5773 5773 5773 5772 5770 5769 5766 5765 5765 5763 5761 5760 5758 5757 5756 5756 5755 5754 5752 5750 5749 5746 5744 5743 5746 5748 5748 5748 5747 5746